Regional Weather Roundup
Issued by NWS Newport/Morehead, NC

Current Version | Previous Version | Text Only | Print | Product List | Glossary On
Versions: 1 2 3 4 5 6 7 8 9 10 11 12 13 14 15 16 17 18 19 20 21 22 23 24 25 26 27 28 29 30 31 32 33 34 35 36 37 38 39 40 41 42 43 44 45 46 47 48 49 50
000
ASUS42 KMHX 271513
RWRMHX
WEATHER ROUNDUP FOR EASTERN NORTH CAROLINA
NATIONAL WEATHER SERVICE NEWPORT/MOREHEAD CITY NC
1100 AM EDT TUE SEP 27 2016

NOTE: "FAIR" INDICATES FEW OR NO CLOUDS BELOW 12,000 FEET
WITH NO SIGNIFICANT WEATHER AND/OR OBSTRUCTIONS TO VISIBILITY

NCZ015>017-031-032-045>047-102-103-271600-
NORTH COAST

CITY           SKY/WX    TMP DP  RH WIND       PRES   REMARKS
EDENTON        CLOUDY    78  67  70 W5        30.00S
ELIZABETH CITY CLOUDY    78  69  73 SW6       29.99S
KITTY HAWK     CLOUDY    79  72  80 CALM      29.99R
MANTEO         CLOUDY    77  69  78 S3        30.00R

$$

NCZ045>047-081-094-103-104-271600-
CENTRAL COAST

CITY           SKY/WX    TMP DP  RH WIND       PRES   REMARKS
FRISCO         LGT RAIN  76  69  79 SE9       29.98F

$$

NCZ095-097-098-100-101-271600-
SOUTHERN COAST

CITY           SKY/WX    TMP DP  RH WIND       PRES   REMARKS
BEAUFORT       CLOUDY    79  73  82 SE6       29.97S
CEDAR ISLAND   NOT AVBL
JACKSONVILLE   CLOUDY    80  71  74 CALM      29.97R
PINEY ISLAND   MOSUNNY  N/A N/A N/A E3        29.97S
WILMINGTON     CLOUDY    79  71  76 VRB3      29.97R


$$

NCZ011>013-027>030-043-044-078>080-089-090>093-098-271600-
COASTAL PLAIN

CITY           SKY/WX    TMP DP  RH WIND       PRES   REMARKS
AHOSKIE        MOSUNNY   71  68  89 CALM      29.99S
CLINTON        SUNNY     80  71  74 CALM      29.99S
ELIZABETHTOWN  CLOUDY    78  69  75 CALM      29.99S
GOLDSBORO      PTSUNNY   77  72  83 S2        29.97F
GREENVILLE     CLOUDY    77  70  78 CALM      30.00F
HAVELOCK       CLOUDY    81  71  71 S5        29.99R
KENANSVILLE    CLOUDY    75  70  83 CALM      29.99S
KINSTON        PTSUNNY   81  70  69 N3        29.99F
NEW BERN       CLOUDY    81  68  64 VRB3      29.99S
RICHLANDS      CLOUDY    80  70  71 N5        29.99
ROCKY MOUNT    CLOUDY    75  69  81 CALM      29.99S
WASHINGTON     CLOUDY    74  69  83 W5        30.00S
WHITEVILLE     NOT AVBL

$$

AMZ130-135-150-152-154-156-158-170-250-252-270-ANZ085-086-088-633-658-670-271600-
MARINE OBSERVATIONS

STATION/POSITION TIME  TEMP    WIND        PRES    WAVE   SWELL
                       AIR SEA DIR/SP/G            HT/PER HT/PER
                 (UTC) (F)     (DEG/KT/KT) (MB)    (FT/S) (FT/S)
CHESAPEAKE LIGHT NOT AVBL
64 E VA BEACH    1450   75 73  190/  6/  8 1015.7    3/ 6   3/ 6
DUCK             1448   77 76  190/  5/  8 1015.1
2 E DUCK         1441      76                N/A     3/13   2/13
OREGON INLET     1448   75 76  150/  6/  9 1015.7
13E OREGON INLT  1430      76                N/A     3/13   3/13
HATTERAS CG      1448   77 78  140/  7/ 13 1014.8
DIAMOND BUOY     1450   78 84  150/ 16/ 19 1015.1    3/ 6   2/ 9
CAPE LOOKOUT     1500   78     110/ 10/ 10 1014.7
BEAUFORT LAB     1448   78 76  140/  6/  9 1014.4
30 SE NEW RVR IN 1408   78 82  130/ 12/ 16 1014.4
30 SE NEW RVR IN 1425      82                N/A     4/ 6   2/13
27 SE WRIGHTSVLE 1408   79 81  110/  6/ 10 1014.3
5 SE WRIGHTSVLE  1408   80 80   20/  2/  6 1015.7
225 S CAPE HAT   1450   80 83  190/ 14/ 16 1013.9    6/ 6   3/ 7
41 SE CHARLESTON 1450   77 82   40/  4/  6 1013.5    3/ 8   3/ 8

$$




USA.gov is the U.S. government's official web portal to all federal, state and local government web resources and services.